SCOUT A DEB, 2140

Orbit data source: Space-Track

SCOUT A DEB, 2140 is space debris in LEO originally from a launch on Fri, 28 Jan 1966 UTC launched from the Air Force Western Test Range (AFWTR). Debris objects in space refer to the collection of defunct objects orbiting the Earth. Examples of debris include non-operational satellites, rocket bodies, and fragments generated from explosions, collisions, or faulty payload assembly.

Loading next visibility...
Identifier
2140, 1966-005C
Orbit
LEO
Country
Flag of USUS
Related business
Manufacturer
Unknown
Mission
Spacecraft
Bus & Motor
Unknown
Mass
Unknown
Launch date (UTC)
1966-01-28 (60 years ago)
Launch vehicle
Unknown
Launch site
Air Force Western Test Range (AFWTR)
Object type
Payload
Rocket body
Debris
Shape & HBR
Unknown
Radar Cross Section
Small (<0.1 m²)

Expand to show TLE details & history
Last TLE update: 4 days ago

TLE from 4 days ago
0 SCOUT A DEB
1 02140U 66005C   25239.45671170  .00000206  00000-0  23768-3 0  9993
2 02140  89.9472  51.8773 0315150 313.8685  43.6815 13.48270682918879
Epoch: 2025-08-27T10:57Z
TLE epoch observation values (Epoch: 2025-08-27T10:57:39.89Z)
Latitude
-0.00008°
Longitude
-88.47271°
Altitude
915.259 km
Speed
7.476 km/s
True Right ascension
03h 27m 30s
True Declination
0° 00' 00"
Sunlit
Object was in daylight at epoch
Visualization orbit readout
Latitude
Unknown
Longitude
Unknown
Altitude
Unknown
Speed
Unknown
Apparent Right ascension
Unknown
Apparent Declination
Unknown
Sunlit
N/A
Visualization observer readout
Local Sidereal Time
15:32:00
Azimuth
Unknown
Elevation
Unknown
Doppler factor
Unknown
Orbital elements
Apogee altitude
1,310.583 km
Perigee altitude
840.769 km
Semi-major axis
7,453.813 km
Eccentricity
0.03152
Inclination
89.9472°
RAAN
51.8773°
Arg. of periapsis
313.8685°
True anomaly
46.24787°
Mean anomaly
43.6815°
Eccentric anomaly
44.95736°
Mean motion
3.37268 °/min
Orbital period
106.74 mins
BSTAR
0.00023768
Loading maneuver chart data...
Computing Atmospheric mass density...
Loading historical data...
Loading historical data...
Loading historical data...
Loading historical data...
Loading historical data...
Loading historical data...
Loading historical data...

Documentation

Showing up to 5 results
|